DW0487 Weather Reports


time (UTC)temp
F
wind
direction
speed
knots
gust
knots
rain 1hr
in
rain 24hr
in
rain mn
in
humidity
%
barometer
mb
20200924090027 58 66 0.0 3.5 0.00 0.02 0.01 89 1010.1
20200924084518 57 52 0.0 2.6 0.00 0.02 0.01 90 1010.1
20200924083009 56 63 0.0 0.9 0.00 0.02 0.01 92 1010.0
20200924081648 54 54 0.0 0.0 0.00 0.02 0.01 92 1010.1
20200924081517 54 54 0.0 0.0 0.00 0.02 0.01 92 1010.0
20200924080204 53 57 0.0 0.0 0.00 0.02 0.01 92 1010.0
20200924074624 52 57 0.0 0.9 0.00 0.06 0.01 92 1010.0
20200924073226 52 65 0.0 0.0 0.00 0.06 0.01 92 1010.1
20200924071807 52 62 0.0 0.0 0.00 0.06 0.01 93 1010.0
20200924070216 51 64 0.0 0.9 0.00 0.06 0.01 92 1010.0
20200924064725 50 333 0.0 0.0 0.00 0.16 0.01 93 1009.9
20200924063215 49 42 0.0 0.0 0.01 0.16 0.01 93 1009.9
20200924061611 49 42 0.0 0.0 0.01 0.16 0.01 93 1009.9
20200924060103 49 360 0.0 0.9 0.01 0.16 0.01 93 1009.9
20200924054626 49 66 0.0 0.9 0.01 0.19 0.01 93 1009.8
20200924053141 49 17 0.0 0.0 0.00 0.18 0.00 93 1009.5
20200924051601 49 17 0.0 0.0 0.00 0.18 0.00 93 1009.4
20200924050047 49 17 0.0 0.0 0.00 0.18 0.00 93 1009.4
20200924044544 49 21 0.0 0.0 0.00 0.18 0.00 92 1009.1
20200924043047 49 21 0.0 0.0 0.00 0.18 0.00 92 1009.0
20200924041607 50 22 0.0 0.0 0.00 0.18 0.00 93 1009.1
20200924040121 50 21 0.0 0.0 0.00 0.18 0.00 92 1008.9
20200924034605 50 21 0.0 0.0 0.00 0.18 0.00 92 1009.1
20200924033032 50 69 0.0 0.0 0.00 0.18 0.00 92 1008.9
20200924031600 51 69 0.0 0.0 0.00 0.18 0.00 92 1009.0
20200924030031 51 69 0.0 0.0 0.00 0.18 0.00 92 1009.1
20200924024559 51 129 0.0 0.0 0.00 0.18 0.00 92 1009.2
20200924023030 51 77 0.0 0.0 0.00 0.18 0.00 92 1009.1
20200924021530 51 77 0.0 0.9 0.00 0.18 0.00 92 1009.0
20200924020038 51 78 0.0 0.0 0.00 0.18 0.00 92 1009.1
20200924014520 52 78 0.0 0.0 0.00 0.18 0.00 92 1009.0
20200924013024 52 26 0.0 0.0 0.00 0.18 0.00 92 1008.9
20200924011539 52 38 0.0 0.0 0.00 0.18 0.00 92 1008.9
20200924010055 52 87 0.0 0.0 0.00 0.18 0.00 92 1009.0
20200924004521 52 240 0.0 0.0 0.00 0.18 0.00 92 1009.0
20200924003027 52 177 0.0 0.9 0.00 0.18 0.00 92 1009.0
20200924001523 52 15 0.0 0.0 0.00 0.18 0.00 92 1009.0
20200924000037 52 15 0.0 0.0 0.00 0.18 0.00 92 1009.0
20200923234526 52 11 0.0 0.0 0.00 0.18 0.00 92 1009.0
20200923233019 52 49 0.0 0.9 0.00 0.18 0.00 92 1009.0
20200923231520 52 336 0.0 0.9 0.00 0.18 0.00 92 1009.0
20200923230038 52 342 0.0 0.0 0.00 0.18 0.00 92 1009.1
20200923224517 53 62 0.0 0.9 0.00 0.18 0.00 92 1009.1
20200923223025 53 64 0.0 0.9 0.00 0.18 0.00 92 1009.0
20200923221517 53 5 0.0 0.0 0.00 0.18 0.00 92 1009.1
20200923220027 53 34 0.0 0.9 0.00 0.18 0.18 92 1009.1
20200923214516 53 34 0.0 0.0 0.00 0.18 0.18 92 1009.2
20200923213021 53 34 0.0 0.0 0.00 0.18 0.18 92 1009.1
20200923211516 53 34 0.0 0.0 0.00 0.18 0.18 92 1009.2
20200923210007 53 34 0.0 0.0 0.00 0.18 0.18 92 1009.3
20200923204511 53 34 0.0 0.0 0.00 0.18 0.18 92 1009.5
20200923203007 54 34 0.0 0.0 0.00 0.18 0.18 92 1009.4
20200923201504 54 34 0.0 0.0 0.00 0.18 0.18 92 1009.4
20200923200019 54 34 0.0 0.0 0.00 0.18 0.18 92 1009.4
20200923194726 54 34 0.0 0.0 0.00 0.18 0.18 92 1009.3
20200923193148 54 34 0.0 0.0 0.00 0.18 0.18 92 1009.2
20200923191527 54 34 0.0 0.0 0.00 0.18 0.18 91 1009.1
20200923190020 54 34 0.0 0.0 0.00 0.18 0.18 91 1009.1
20200923184645 55 34 0.0 0.0 0.00 0.18 0.18 91 1009.1
20200923183048 55 34 0.0 0.9 0.00 0.18 0.18 91 1008.9
20200923181516 55 30 0.0 0.0 0.00 0.18 0.18 91 1008.9
20200923180152 56 37 0.0 0.0 0.00 0.18 0.18 91 1008.8
20200923174720 56 37 0.0 0.9 0.00 0.18 0.18 91 1008.8
20200923173149 56 61 0.0 0.9 0.01 0.18 0.18 91 1008.8
20200923171749 57 68 0.0 0.0 0.02 0.18 0.18 91 1008.7
20200923170101 57 31 0.0 0.9 0.02 0.18 0.18 90 1008.7
20200923164620 57 83 0.0 0.9 0.02 0.18 0.18 90 1008.5
20200923163034 58 9 0.0 4.3 0.01 0.17 0.17 88 1008.5
20200923161606 59 44 0.0 5.2 0.00 0.17 0.17 85 1008.2
20200923160035 60 67 1.7 7.0 0.00 0.17 0.17 85 1007.9
20200923154617 60 9 2.6 5.2 0.00 0.17 0.17 84 1007.8
20200923153024 61 25 1.7 4.3 0.00 0.17 0.17 84 1007.7
20200923151549 61 41 1.7 4.3 0.00 0.17 0.17 85 1007.7
20200923150109 61 60 0.0 2.6 0.00 0.17 0.17 86 1007.8
20200923144526 61 42 2.6 4.3 0.00 0.17 0.17 85 1007.9
20200923143034 62 44 2.6 5.2 0.00 0.17 0.17 82 1007.9
20200923141545 62 13 2.6 4.3 0.00 0.17 0.17 85 1008.0
20200923140110 62 36 0.0 4.3 0.00 0.17 0.17 85 1008.0
20200923134521 61 55 0.0 1.7 0.00 0.17 0.17 83 1008.1
20200923133027 61 55 0.0 1.7 0.00 0.17 0.17 85 1008.2
20200923131516 61 39 0.0 0.0 0.00 0.17 0.17 84 1008.4
20200923130050 60 39 0.0 1.7 0.00 0.17 0.17 86 1008.6
20200923124517 60 50 0.0 0.0 0.00 0.17 0.17 88 1008.6
20200923123009 59 47 0.0 0.9 0.00 0.17 0.17 88 1008.7
20200923121707 59 47 0.0 0.0 0.00 0.17 0.17 86 1008.7
20200923120234 59 47 0.0 0.0 0.00 0.17 0.17 89 1008.7
20200923114714 59 47 0.0 1.7 0.00 0.17 0.17 89 1008.7
20200923113138 59 46 0.0 0.9 0.00 0.17 0.17 89 1008.9
20200923111816 58 46 0.0 0.0 0.00 0.17 0.17 89 1009.0
20200923110133 59 20 0.0 0.9 0.00 0.17 0.17 90 1009.1
20200923104630 58 14 0.0 0.0 0.00 0.17 0.17 90 1009.1
20200923103055 58 67 0.0 0.9 0.00 0.17 0.17 91 1009.1
20200923101619 57 24 0.0 0.9 0.00 0.17 0.17 91 1009.3
20200923100113 56 14 0.0 0.9 0.00 0.17 0.17 91 1009.3
20200923094603 56 14 0.0 0.0 0.00 0.17 0.17 91 1009.3
20200923093052 56 13 0.0 0.9 0.00 0.17 0.17 91 1009.3
20200923091544 55 13 0.0 0.0 0.00 0.17 0.17 92 1009.2